Simultaneous Nadir Overpasses (SNOs) Predictions

Prediction of SNOs over PacNW region [( 10.00, 139.50) to ( 22.70, 165.60)] between AQUA and NPP Satellites:

Table of predicted SNOs over PacNW region for the next 30.0 days since TLE Epoch: 11/10/2018
Index Date (AQUA) Time (AQUA) AQUA Lat,Lon Date (NPP) Time (NPP) NPP Lat,Lon Distance(km) Time Diff (sec)
1 11/11/2018 15:59:17 22.60, 147.48 11/11/2018 16:02:13 23.29, 144.52 312.55 176
2 11/19/2018 15:09:45 22.63, 159.87 11/19/2018 15:11:29 23.24, 157.18 283.38 104
3 11/22/2018 03:31:34 22.68, 147.54 11/22/2018 03:28:04 23.75, 145.43 246.73 210
4 11/27/2018 15:59:06 22.62, 147.52 11/27/2018 16:02:13 23.28, 144.49 319.68 187
5 12/05/2018 15:09:33 22.61, 159.91 12/05/2018 15:11:28 23.25, 157.15 291.07 115




NCC Satellite Simultaneous Nadir Overpasses (SNOs) Prediction Service
